Skip Page Navigation
NASA JPL Caltech
NASA Logo - Jet Propulsion Laboratory + View the NASA Portal
+ Near-Earth Object (NEO) Program
Search JPL
JPL Home Earth Solar System Stars & Galaxies Technology
JPL Solar System Dynamics
BODIES ORBITS EPHEMERIDES TOOLS PHYSICAL DATA DISCOVERY FAQ SITE MAP
JPL Small-Body Database Browser
Search: [ help ]  
101955 Bennu (1999 RQ36)
Classification: Apollo [NEO, PHA]          SPK-ID: 2101955
Ephemeris | Orbit Diagram | Orbital Elements | Physical Parameters | Discovery Circumstances | Close-Approach Data ]

[ hide orbit diagram ]
Orbit Diagram
Note: Make sure you have Java enabled on your browser to see the applet. This applet is provided as a 3D orbit visualization tool. The applet was implemented using 2-body methods, and hence should not be used for determining accurate long-term trajectories (over several years or decades) or planetary encounter circumstances. For accurate long-term ephemerides, please instead use our Horizons system.
Orbit Viewer

Additional Notes: the orbits shown in the applet are color coded. The planets are white lines, and the asteroid/comet is a blue line. The bright white line indicates the portion of the orbit that is above the ecliptic plane, and the darker portion is below the ecliptic plane. Likewise for the asteroid/comet orbit, the light blue indicates the portion above the ecliptic plane, and the dark blue the portion below the ecliptic plane.

Orbit Viewer applet originally written and kindly provided by Osamu Ajiki (AstroArts), and further modified by Ron Baalke (JPL).


Orbital Elements at Epoch 2456400.5 (2013-Apr-18.0) TDB
Reference: JPL 64 (heliocentric ecliptic J2000)
 Element Value Uncertainty (1-sigma)   Units 
e .2037319346437232 3.4131e-08  
a 1.126004277007048 1.294e-10 AU
q .8966012472352957 3.8364e-08 AU
i 6.034917131144178 4.3573e-06 deg
node 2.042278429192176 5.6318e-06 deg
peri 66.26860100390597 6.4232e-06 deg
M 72.82807637355893 3.7237e-06 deg
tp 2456312.211360346027
(2013-Jan-19.71136035)
4.5042e-06 JED
period 436.4238609351743
1.19
7.5233e-08
2.06e-10
d
yr
n .824886153631902 1.422e-10 deg/d
Q 1.355407306778801 1.5577e-10 AU
  Orbit Determination Parameters
   # obs. used (total)      298  
   # delay obs. used      9  
   # Doppler obs. used      4  
   data-arc span      2449 days (6.70 yr)  
   first obs. used      1999-09-11  
   last obs. used      2006-05-26  
   planetary ephem.      DE405  
   SB-pert. ephem.      SB405-CPV-2  
   condition code      0  
   fit RMS      .52072  
   data source      ORB  
   producer      Otto Matic  
   solution date      2010-Aug-05 01:50:30  

Additional Information
 Earth MOID = .00296049 AU 
 T_jup = 5.527 
[ show covariance matrix ]

Ephemeris | Orbit Diagram | Orbital Elements | Physical Parameters | Discovery Circumstances | Close-Approach Data ]

Physical Parameter Table
Parameter Symbol Value Units Sigma Reference Notes
absolute magnitude H 20.812 mag .65782 64 autocmod 2.4a
rotation period rot_per 4.288 h n/a Nolan, M.C., et al., "The Shape and Spin of 101955 (1999 RQ36) from Arecibo and (2.1 hour harmonic is ruled out by the radar data)

101955 Bennu           Discovered 1999 Sept. 11 by the Lincoln Laboratory Near-Earth Asteroid Research Team at Socorro.
Bennu was an Egyptian mythological figure associated with Osiris, Atum and Ra. This minor planet is the target of the OSIRIS-REx sample return mission. OSIRIS-REx's Touch-and-Go Sampler evokes Bennu's image as a heron. Name suggested by Michael Toler Puzio (b. 2004) via a naming contest for students.
NOTE: some special characters may not display properly (any characters within {} are an attempt to place the proper accent above a character)
Reference: MPC batch dated 2013-04-25Last Updated: 2013-04-29

[ show close-approach data ]
Ephemeris | Orbit Diagram | Orbital Elements | Physical Parameters | Discovery Circumstances | Close-Approach Data ]
ABOUT SSD CREDITS/AWARDS PRIVACY/COPYRIGHT GLOSSARY LINKS
FirstGov 2013-May-23 03:48 UT
(server date/time)  
NASA Home Page
Site Manager:   Donald K. Yeomans
Webmaster  Alan B. Chamberlin